Location: ?????????
(44.2517°N, 135.2292°E)
Time: 16:27:02
(UTC+00:00)

ARIANE 6 FM1 Upper Stage - Pass Details

Date: 17 January 2026
Orbit: 522 x 609 km, 62.0° (Epoch: 11 February)

Event Time Altitude Azimuth Distance (km) Brightness Sun altitude
Exits shadow 19:40:56 11° 153° (SSE) 1,720 5.4 -29.9°
Drops below altitude 10° 19:41:05 10° 153° (SSE) 1,784 5.5 -29.8°
Sets 19:43:19 0° 150° (SSE) 2,684 6.5 -29.4°
